Tracking 25620 objects as of 18-May-2022
HD Live streaming from Space Station
objects crossing your sky now

STARLINK-1600

Track STARLINK-1600 now!
10-day predictions
STARLINK-1600 is classified as:


NORAD ID: 46161
Int'l Code: 2020-057AW
Perigee: 553.3 km
Apogee: 555.4 km
Inclination: 53.1 °
Period: 95.6 minutes
Semi major axis: 6925 km
RCS: Unknown
Launch date: August 18, 2020
Source: United States (US)
Launch site: AIR FORCE EASTERN TEST RANGE (AFETR)
aabbcc
Your satellite tracking list
Your tracking list is empty




NASA's NSSDC Master Catalog

Two Line Element Set (TLE):
1 46161U 20057AW  22138.17163562  .00000299  00000-0  38962-4 0  9991
2 46161  53.0559  63.3773 0001514  73.0315 287.0840 15.06387247 97273
Source of the keplerian elements: AFSPC